Home > Weather > Santa Clara > Past weeks

Flag for Cuba Weather for the Past 2 Weeks in Santa Clara, Cuba

Now
77 °F

Warm.


Feels Like: 78 °F
Forecast: 67 / 82 °F
Wind: 5 mph from West

Location: Cienfuegos - Las Villas

Current Time: May 5, 2016 at 8:42:35 AM

Latest Report: May 5, 2016 at 7:58 AM


Visibility: N/A

Pressure: 29.80 "Hg

Humidity: 94%

Dew Point: 75 °F

Location of Santa ClaraLocation

Historic Weather in Santa Clara — Graph

°F

Santa Clara Temperature Yesterday

Maximum temperature yesterday: 88 °F (at 11:50 AM)
Minimum temperature yesterday: 70 °F (at 11:58 PM)
Average temperature yesterday: 81 °F

High & Low Weather Summary for the Past Weeks

 TemperatureHumidityPressure
High91 °F (Apr 23, 12:58 PM)100% (Apr 21, 3:52 PM)30.04 "Hg (Apr 21, 3:52 PM)
Low32 °F (Apr 21, 3:52 PM)31% (Apr 26, 12:50 PM)29.77 "Hg (May 5, 3:58 AM)
Average79 °F72%29.94 "Hg
* Reported Apr 20 6:58 AM — May 5 6:58 AM, Santa Clara, Weather by CustomWeather, © 2016

Note: Actual official high and low records may vary slightly from our data, if they occured in-between our weather recording intervals... More about our weather records

Advertising

Santa Clara Weather History for the Previous 24 Hours

Scroll right to see more
 ConditionsComfort  
Time TempWeatherWind HumidityBarometerVisibility
6:58 AM
Thu, May 5
75 °FMild.3 mph94%29.80 "HgN/A
5:57 AM75 °FMild.5 mph94%29.77 "HgN/A
4:58 AM77 °FWarm.8 mph94%29.77 "HgN/A
3:58 AM75 °FMild.5 mph94%29.77 "HgN/A
2:58 AM73 °FMild.5 mph100%29.80 "HgN/A
1:58 AM72 °FMild.2 mph100%29.83 "HgN/A
12:58 AM72 °FMild.6 mph94%29.83 "HgN/A
11:58 PM
Wed, May 4
70 °FMild.6 mph100%29.89 "HgN/A
10:57 PM75 °FMild.13 mph89%29.89 "HgN/A
9:58 PM79 °FWarm.6 mph94%29.86 "HgN/A
8:58 PM81 °FWarm.6 mph84%29.86 "HgN/A
7:58 PM82 °FWarm.9 mph84%29.83 "HgN/A
6:58 PM82 °FWarm.10 mph84%29.83 "HgN/A
5:58 PM84 °FWarm.9 mph74%29.83 "HgN/A
4:58 PM84 °FWarm.13 mph74%29.83 "HgN/A
3:50 PM86 °FPartly sunny.14 mph70%29.83 "HgN/A
2:51 PM88 °FBroken clouds.14 mph66%29.86 "HgN/A
1:50 PM88 °FScattered clouds.14 mph66%29.89 "HgN/A
12:50 PM88 °FScattered clouds.16 mph66%29.92 "HgN/A
11:50 AM88 °FScattered clouds.15 mph66%29.92 "HgN/A
10:50 AM86 °FScattered clouds.14 mph70%29.92 "HgN/A
9:50 AM86 °FScattered clouds.10 mph70%29.92 "HgN/A
8:51 AM82 °FPassing clouds.6 mph79%29.92 "HgN/A
Weather by CustomWeather, © 2016

See weather overviewHow to use our weather pages